Time,TemperatureF,DewpointF,PressureIn,WindDirection,WindDirectionDegrees,WindSpeedMPH,WindSpeedGustMPH,Humidity,HourlyPrecipIn,Conditions,Clouds,dailyrainin,SoftwareType,DateUTC
2013-06-18 00:01:00,64.6,61.9,29.89,NW,319,2.0,9.0,91,0.08,,,1.87,Wunderground v.1.15,2013-06-18 04:01:00,
2013-06-18 00:02:00,64.5,61.8,29.89,NNW,335,2.0,9.0,91,0.07,,,1.87,Wunderground v.1.15,2013-06-18 04:02:00,
2013-06-18 00:03:00,64.5,61.8,29.89,NNW,328,2.0,9.0,91,0.06,,,1.87,Wunderground v.1.15,2013-06-18 04:03:00,
2013-06-18 00:05:00,64.4,62.0,29.89,North,349,2.0,9.0,92,0.05,,,1.87,Wunderground v.1.15,2013-06-18 04:05:00,
2013-06-18 00:08:00,64.3,61.9,29.89,North,349,3.0,9.0,92,0.04,,,1.87,Wunderground v.1.15,2013-06-18 04:08:00,
2013-06-18 00:14:00,64.3,61.9,29.89,NNW,339,2.0,9.0,92,0.00,,,1.87,Wunderground v.1.15,2013-06-18 04:14:00,
2013-06-18 00:19:00,64.3,61.9,29.89,NNW,340,2.0,9.0,92,0.00,,,1.87,Wunderground v.1.15,2013-06-18 04:19:00,
2013-06-18 00:25:00,64.2,62.1,29.89,NNE,15,1.0,9.0,93,0.20,,,1.89,Wunderground v.1.15,2013-06-18 04:25:00,
2013-06-18 00:30:00,64.2,62.1,29.89,WNW,296,1.0,9.0,93,0.54,,,1.98,Wunderground v.1.15,2013-06-18 04:30:00,
2013-06-18 00:36:00,64.2,62.1,29.89,WNW,296,1.0,9.0,93,0.12,,,1.99,Wunderground v.1.15,2013-06-18 04:36:00,
2013-06-18 00:42:00,64.1,62.0,29.89,NW,314,1.0,9.0,93,0.16,,,2.00,Wunderground v.1.15,2013-06-18 04:42:00,
2013-06-18 00:47:00,64.1,62.0,29.88,NW,316,1.0,9.0,93,0.07,,,2.00,Wunderground v.1.15,2013-06-18 04:47:00,
2013-06-18 00:53:00,63.9,62.1,29.88,East,91,2.0,9.0,94,0.04,,,2.00,Wunderground v.1.15,2013-06-18 04:53:00,
2013-06-18 00:58:00,63.8,61.7,29.88,ENE,68,2.0,9.0,93,0.00,,,0.00,Wunderground v.1.15,2013-06-18 04:58:00,
2013-06-18 01:03:00,63.6,61.5,29.87,ENE,68,1.0,9.0,93,0.00,,,0.00,Wunderground v.1.15,2013-06-18 05:03:00,
2013-06-18 01:08:00,63.6,61.8,29.86,ENE,74,1.0,9.0,94,0.00,,,0.01,Wunderground v.1.15,2013-06-18 05:08:00,
2013-06-18 01:14:00,63.6,61.8,29.86,ENE,72,2.0,9.0,94,0.00,,,0.01,Wunderground v.1.15,2013-06-18 05:14:00,
2013-06-18 01:20:00,63.6,61.8,29.86,WSW,245,2.0,9.0,94,0.00,,,0.01,Wunderground v.1.15,2013-06-18 05:20:00,
2013-06-18 01:25:00,63.7,61.9,29.86,WSW,247,2.0,9.0,94,0.00,,,0.01,Wunderground v.1.15,2013-06-18 05:25:00,
2013-06-18 01:30:00,63.7,61.9,29.85,WSW,247,0.0,9.0,94,0.00,,,0.01,Wunderground v.1.15,2013-06-18 05:30:00,
2013-06-18 01:36:00,63.8,62.0,29.85,WSW,247,0.0,9.0,94,0.00,,,0.01,Wunderground v.1.15,2013-06-18 05:36:00,
2013-06-18 01:41:00,63.9,62.1,29.84,WSW,247,0.0,9.0,94,0.00,,,0.01,Wunderground v.1.15,2013-06-18 05:41:00,
2013-06-18 01:47:00,64.0,62.2,29.84,WSW,247,0.0,9.0,94,0.00,,,0.01,Wunderground v.1.15,2013-06-18 05:47:00,
2013-06-18 01:53:00,64.1,62.6,29.84,WSW,247,0.0,9.0,95,0.00,,,0.01,Wunderground v.1.15,2013-06-18 05:53:00,
2013-06-18 01:58:00,64.1,62.6,29.83,WSW,247,0.0,9.0,95,0.00,,,0.01,Wunderground v.1.15,2013-06-18 05:58:00,
2013-06-18 02:04:00,64.1,62.6,29.83,South,191,0.0,9.0,95,0.00,,,0.01,Wunderground v.1.15,2013-06-18 06:04:00,
2013-06-18 02:09:00,64.1,62.6,29.84,South,191,1.0,9.0,95,0.00,,,0.01,Wunderground v.1.15,2013-06-18 06:09:00,
2013-06-18 02:14:00,64.0,62.2,29.84,South,191,1.0,9.0,94,0.00,,,0.01,Wunderground v.1.15,2013-06-18 06:14:00,
2013-06-18 02:20:00,63.8,62.0,29.84,WNW,292,1.0,1.0,94,0.00,,,0.01,Wunderground v.1.15,2013-06-18 06:20:00,
2013-06-18 02:26:00,63.6,61.8,29.83,WNW,292,0.0,9.0,94,0.00,,,0.01,Wunderground v.1.15,2013-06-18 06:26:00,
2013-06-18 02:31:00,63.5,61.7,29.83,WNW,292,0.0,9.0,94,0.00,,,0.01,Wunderground v.1.15,2013-06-18 06:31:00,
2013-06-18 02:37:00,63.4,61.9,29.83,WNW,292,0.0,9.0,95,0.00,,,0.01,Wunderground v.1.15,2013-06-18 06:37:00,
2013-06-18 02:43:00,63.4,61.9,29.83,WNW,292,0.0,9.0,95,0.00,,,0.01,Wunderground v.1.15,2013-06-18 06:43:00,
2013-06-18 02:48:00,63.4,61.6,29.83,SSW,211,0.0,9.0,94,0.00,,,0.01,Wunderground v.1.15,2013-06-18 06:48:00,
2013-06-18 02:53:00,63.5,62.0,29.83,SSW,211,0.0,9.0,95,0.00,,,0.01,Wunderground v.1.15,2013-06-18 06:53:00,
2013-06-18 02:59:00,63.5,62.0,29.83,SSW,211,0.0,9.0,95,0.00,,,0.01,Wunderground v.1.15,2013-06-18 06:59:00,
2013-06-18 03:04:00,63.6,62.1,29.83,SSW,211,0.0,9.0,95,0.00,,,0.01,Wunderground v.1.15,2013-06-18 07:04:00,
2013-06-18 03:09:00,63.6,62.1,29.83,SSW,211,0.0,9.0,95,0.00,,,0.01,Wunderground v.1.15,2013-06-18 07:09:00,
2013-06-18 03:15:00,63.6,62.1,29.83,SSW,211,0.0,9.0,95,0.00,,,0.01,Wunderground v.1.15,2013-06-18 07:15:00,
2013-06-18 03:20:00,63.6,62.1,29.83,SSW,211,0.0,9.0,95,0.00,,,0.01,Wunderground v.1.15,2013-06-18 07:20:00,
2013-06-18 03:25:00,63.6,62.1,29.82,SSW,211,0.0,9.0,95,0.00,,,0.01,Wunderground v.1.15,2013-06-18 07:25:00,
2013-06-18 03:31:00,63.6,62.1,29.82,ESE,110,1.0,9.0,95,0.00,,,0.01,Wunderground v.1.15,2013-06-18 07:31:00,
2013-06-18 03:36:00,63.5,62.0,29.82,East,95,2.0,9.0,95,0.00,,,0.01,Wunderground v.1.15,2013-06-18 07:36:00,
2013-06-18 03:42:00,63.5,62.0,29.82,East,93,1.0,9.0,95,0.00,,,0.01,Wunderground v.1.15,2013-06-18 07:42:00,
2013-06-18 03:47:00,63.5,62.0,29.82,East,93,1.0,9.0,95,0.00,,,0.01,Wunderground v.1.15,2013-06-18 07:47:00,
2013-06-18 03:52:00,63.6,62.1,29.81,East,94,0.0,9.0,95,0.00,,,0.01,Wunderground v.1.15,2013-06-18 07:52:00,
2013-06-18 03:58:00,63.6,62.1,29.81,East,95,1.0,9.0,95,0.00,,,0.01,Wunderground v.1.15,2013-06-18 07:58:00,
2013-06-18 04:03:00,63.6,62.1,29.81,East,94,1.0,9.0,95,0.00,,,0.01,Wunderground v.1.15,2013-06-18 08:03:00,
2013-06-18 04:09:00,63.6,62.1,29.81,East,82,1.0,9.0,95,0.00,,,0.01,Wunderground v.1.15,2013-06-18 08:09:00,
2013-06-18 04:15:00,63.6,62.1,29.81,East,82,1.0,9.0,95,0.00,,,0.01,Wunderground v.1.15,2013-06-18 08:15:00,
2013-06-18 04:20:00,63.6,62.1,29.81,East,82,0.0,9.0,95,0.00,,,0.01,Wunderground v.1.15,2013-06-18 08:20:00,
2013-06-18 04:25:00,63.6,62.1,29.80,East,82,0.0,9.0,95,0.00,,,0.01,Wunderground v.1.15,2013-06-18 08:25:00,
2013-06-18 04:30:00,63.6,62.1,29.80,East,82,1.0,1.0,95,0.00,,,0.01,Wunderground v.1.15,2013-06-18 08:30:00,
2013-06-18 04:36:00,63.6,62.1,29.80,East,82,1.0,9.0,95,0.00,,,0.01,Wunderground v.1.15,2013-06-18 08:36:00,
2013-06-18 04:42:00,63.6,62.1,29.80,East,82,0.0,9.0,95,0.00,,,0.01,Wunderground v.1.15,2013-06-18 08:42:00,
2013-06-18 04:48:00,63.6,62.1,29.80,East,82,0.0,9.0,95,0.00,,,0.01,Wunderground v.1.15,2013-06-18 08:48:00,
2013-06-18 04:54:00,63.6,62.1,29.80,East,82,0.0,9.0,95,0.00,,,0.01,Wunderground v.1.15,2013-06-18 08:54:00,
2013-06-18 05:00:00,63.5,62.0,29.80,East,82,0.0,9.0,95,0.00,,,0.01,Wunderground v.1.15,2013-06-18 09:00:00,
2013-06-18 05:05:00,63.5,62.0,29.80,East,82,0.0,9.0,95,0.00,,,0.01,Wunderground v.1.15,2013-06-18 09:05:00,
2013-06-18 05:10:00,63.5,62.0,29.80,East,82,0.0,9.0,95,0.00,,,0.01,Wunderground v.1.15,2013-06-18 09:10:00,
2013-06-18 05:15:00,63.5,62.0,29.79,East,82,0.0,9.0,95,0.00,,,0.01,Wunderground v.1.15,2013-06-18 09:15:00,
2013-06-18 05:20:00,63.6,62.1,29.80,East,93,0.0,9.0,95,0.00,,,0.01,Wunderground v.1.15,2013-06-18 09:20:00,
2013-06-18 05:25:00,63.8,62.3,29.80,East,100,1.0,9.0,95,0.00,,,0.01,Wunderground v.1.15,2013-06-18 09:25:00,
2013-06-18 05:30:00,63.9,62.4,29.80,East,100,0.0,9.0,95,0.00,,,0.01,Wunderground v.1.15,2013-06-18 09:30:00,
2013-06-18 05:36:00,64.1,62.6,29.80,East,100,0.0,9.0,95,0.00,,,0.01,Wunderground v.1.15,2013-06-18 09:36:00,
2013-06-18 05:41:00,64.2,62.7,29.80,East,100,0.0,9.0,95,0.00,,,0.01,Wunderground v.1.15,2013-06-18 09:41:00,
2013-06-18 05:46:00,64.4,62.9,29.80,East,100,0.0,9.0,95,0.00,,,0.01,Wunderground v.1.15,2013-06-18 09:46:00,
2013-06-18 05:52:00,64.7,63.2,29.80,East,100,0.0,9.0,95,0.00,,,0.01,Wunderground v.1.15,2013-06-18 09:52:00,
2013-06-18 05:57:00,64.7,63.2,29.80,East,100,0.0,9.0,95,0.00,,,0.01,Wunderground v.1.15,2013-06-18 09:57:00,
2013-06-18 06:03:00,64.7,63.2,29.80,East,100,0.0,9.0,95,0.00,,,0.01,Wunderground v.1.15,2013-06-18 10:03:00,
2013-06-18 06:09:00,64.4,62.9,29.80,East,100,0.0,9.0,95,0.00,,,0.01,Wunderground v.1.15,2013-06-18 10:09:00,
2013-06-18 06:15:00,64.3,62.8,29.80,East,100,0.0,9.0,95,0.00,,,0.01,Wunderground v.1.15,2013-06-18 10:15:00,
2013-06-18 06:20:00,64.2,62.7,29.81,East,100,0.0,9.0,95,0.00,,,0.01,Wunderground v.1.15,2013-06-18 10:20:00,
2013-06-18 06:26:00,64.2,62.7,29.81,East,100,0.0,9.0,95,0.00,,,0.01,Wunderground v.1.15,2013-06-18 10:26:00,
2013-06-18 06:31:00,64.2,62.7,29.81,East,100,0.0,9.0,95,0.00,,,0.01,Wunderground v.1.15,2013-06-18 10:31:00,
2013-06-18 06:36:00,64.4,62.9,29.81,SSE,158,0.0,9.0,95,0.00,,,0.01,Wunderground v.1.15,2013-06-18 10:36:00,
2013-06-18 06:41:00,64.5,63.0,29.81,SSE,158,1.0,9.0,95,0.00,,,0.01,Wunderground v.1.15,2013-06-18 10:41:00,
2013-06-18 06:47:00,64.6,63.1,29.82,SSE,162,0.0,9.0,95,0.00,,,0.01,Wunderground v.1.15,2013-06-18 10:47:00,
2013-06-18 06:53:00,64.7,63.2,29.82,SSE,162,1.0,9.0,95,0.00,,,0.01,Wunderground v.1.15,2013-06-18 10:53:00,
2013-06-18 06:58:00,64.8,63.3,29.82,SSE,162,1.0,9.0,95,0.00,,,0.01,Wunderground v.1.15,2013-06-18 10:58:00,
2013-06-18 07:04:00,64.9,63.4,29.81,SSE,162,1.0,9.0,95,0.00,,,0.01,Wunderground v.1.15,2013-06-18 11:04:00,
2013-06-18 07:09:00,64.9,63.4,29.82,SSE,162,0.0,9.0,95,0.00,,,0.01,Wunderground v.1.15,2013-06-18 11:09:00,
2013-06-18 07:15:00,64.9,63.4,29.82,SSE,162,0.0,9.0,95,0.00,,,0.01,Wunderground v.1.15,2013-06-18 11:15:00,
2013-06-18 07:20:00,64.9,63.4,29.82,SSE,162,0.0,9.0,95,0.00,,,0.01,Wunderground v.1.15,2013-06-18 11:20:00,
2013-06-18 07:25:00,64.9,63.4,29.82,North,354,1.0,9.0,95,0.00,,,0.01,Wunderground v.1.15,2013-06-18 11:25:00,
2013-06-18 07:31:00,65.0,63.5,29.82,ENE,62,2.0,9.0,95,0.00,,,0.01,Wunderground v.1.15,2013-06-18 11:31:00,
2013-06-18 07:37:00,65.1,63.6,29.82,ENE,62,1.0,9.0,95,0.00,,,0.01,Wunderground v.1.15,2013-06-18 11:37:00,
2013-06-18 07:42:00,65.0,63.5,29.82,ENE,60,0.0,9.0,95,0.00,,,0.01,Wunderground v.1.15,2013-06-18 11:42:00,
2013-06-18 07:48:00,64.7,63.2,29.83,NNE,19,1.0,9.0,95,0.00,,,0.01,Wunderground v.1.15,2013-06-18 11:48:00,
2013-06-18 07:54:00,64.5,63.0,29.82,NNW,344,1.0,9.0,95,0.00,,,0.01,Wunderground v.1.15,2013-06-18 11:54:00,
2013-06-18 07:59:00,64.5,63.0,29.83,NNW,344,1.0,9.0,95,0.00,,,0.01,Wunderground v.1.15,2013-06-18 11:59:00,
2013-06-18 08:05:00,64.7,63.2,29.83,NNW,344,0.0,9.0,95,0.00,,,0.01,Wunderground v.1.15,2013-06-18 12:05:00,
2013-06-18 08:11:00,64.7,63.2,29.83,NNW,344,0.0,9.0,95,0.00,,,0.01,Wunderground v.1.15,2013-06-18 12:11:00,
2013-06-18 08:16:00,64.7,63.2,29.83,North,354,1.0,9.0,95,0.00,,,0.01,Wunderground v.1.15,2013-06-18 12:16:00,
2013-06-18 08:21:00,64.7,63.2,29.83,North,354,1.0,2.0,95,0.00,,,0.01,Wunderground v.1.15,2013-06-18 12:21:00,
2013-06-18 08:27:00,64.9,63.4,29.83,SSE,166,1.0,9.0,95,0.00,,,0.01,Wunderground v.1.15,2013-06-18 12:27:00,
2013-06-18 08:33:00,65.1,63.6,29.83,South,169,2.0,9.0,95,0.00,,,0.01,Wunderground v.1.15,2013-06-18 12:33:00,
2013-06-18 08:38:00,65.2,63.7,29.83,SSE,160,2.0,9.0,95,0.00,,,0.01,Wunderground v.1.15,2013-06-18 12:38:00,
2013-06-18 08:44:00,65.4,63.9,29.83,South,169,2.0,9.0,95,0.00,,,0.01,Wunderground v.1.15,2013-06-18 12:44:00,
2013-06-18 08:50:00,65.7,64.2,29.83,South,169,1.0,9.0,95,0.00,,,0.01,Wunderground v.1.15,2013-06-18 12:50:00,
2013-06-18 08:56:00,65.9,64.4,29.83,SSE,168,0.0,9.0,95,0.00,,,0.01,Wunderground v.1.15,2013-06-18 12:56:00,
2013-06-18 09:01:00,66.2,64.7,29.83,SSE,168,0.0,9.0,95,0.00,,,0.01,Wunderground v.1.15,2013-06-18 13:01:00,
2013-06-18 09:06:00,66.3,64.8,29.83,West,266,1.0,9.0,95,0.00,,,0.01,Wunderground v.1.15,2013-06-18 13:06:00,
2013-06-18 09:11:00,66.3,64.8,29.83,NNW,332,2.0,9.0,95,0.00,,,0.01,Wunderground v.1.15,2013-06-18 13:11:00,
2013-06-18 09:16:00,66.3,64.8,29.83,NW,305,2.0,9.0,95,0.00,,,0.01,Wunderground v.1.15,2013-06-18 13:16:00,
2013-06-18 09:22:00,66.5,65.0,29.83,NW,318,2.0,9.0,95,0.00,,,0.01,Wunderground v.1.15,2013-06-18 13:22:00,
2013-06-18 09:28:00,66.7,65.2,29.83,NW,318,1.0,9.0,95,0.00,,,0.01,Wunderground v.1.15,2013-06-18 13:28:00,
2013-06-18 09:34:00,67.0,65.5,29.82,NNE,16,1.0,9.0,95,0.00,,,0.01,Wunderground v.1.15,2013-06-18 13:34:00,
2013-06-18 09:39:00,67.3,65.8,29.82,ENE,67,1.0,9.0,95,0.00,,,0.01,Wunderground v.1.15,2013-06-18 13:39:00,
2013-06-18 09:44:00,67.5,66.0,29.82,NNE,28,0.0,9.0,95,0.00,,,0.01,Wunderground v.1.15,2013-06-18 13:44:00,
2013-06-18 09:49:00,67.4,65.6,29.82,NE,51,0.0,9.0,94,0.00,,,0.01,Wunderground v.1.15,2013-06-18 13:49:00,
2013-06-18 09:55:00,67.2,65.1,29.82,ENE,73,2.0,9.0,93,0.00,,,0.01,Wunderground v.1.15,2013-06-18 13:55:00,
2013-06-18 10:01:00,67.1,65.3,29.82,East,98,2.0,9.0,94,0.00,,,0.01,Wunderground v.1.15,2013-06-18 14:01:00,
2013-06-18 10:06:00,67.0,65.2,29.82,East,99,1.0,9.0,94,0.00,,,0.01,Wunderground v.1.15,2013-06-18 14:06:00,
2013-06-18 10:11:00,67.0,64.9,29.82,East,97,1.0,9.0,93,0.00,,,0.01,Wunderground v.1.15,2013-06-18 14:11:00,
2013-06-18 10:17:00,67.2,65.1,29.81,East,98,1.0,9.0,93,0.00,,,0.01,Wunderground v.1.15,2013-06-18 14:17:00,
2013-06-18 10:22:00,67.5,65.7,29.81,East,91,0.0,9.0,94,0.00,,,0.01,Wunderground v.1.15,2013-06-18 14:22:00,
2013-06-18 10:28:00,67.6,65.2,29.81,NNE,25,1.0,9.0,92,0.00,,,0.01,Wunderground v.1.15,2013-06-18 14:28:00,
2013-06-18 10:33:00,67.6,65.2,29.81,NNW,342,1.0,9.0,92,0.00,,,0.01,Wunderground v.1.15,2013-06-18 14:33:00,
2013-06-18 10:39:00,67.7,65.0,29.81,NNW,342,1.0,9.0,91,0.00,,,0.01,Wunderground v.1.15,2013-06-18 14:39:00,
2013-06-18 10:44:00,67.8,65.4,29.81,NNW,342,0.0,9.0,92,0.00,,,0.01,Wunderground v.1.15,2013-06-18 14:44:00,
2013-06-18 10:49:00,68.0,65.3,29.81,NNW,339,0.0,9.0,91,0.00,,,0.01,Wunderground v.1.15,2013-06-18 14:49:00,
2013-06-18 10:54:00,68.1,65.4,29.81,NNW,339,1.0,9.0,91,0.00,,,0.01,Wunderground v.1.15,2013-06-18 14:54:00,
2013-06-18 11:00:00,68.1,65.7,29.81,NNW,335,1.0,9.0,92,0.00,,,0.02,Wunderground v.1.15,2013-06-18 15:00:00,
2013-06-18 11:05:00,68.1,65.7,29.81,WNW,286,1.0,9.0,92,0.00,,,0.02,Wunderground v.1.15,2013-06-18 15:05:00,
2013-06-18 11:10:00,68.1,65.7,29.81,WNW,286,1.0,9.0,92,0.06,,,0.03,Wunderground v.1.15,2013-06-18 15:10:00,
2013-06-18 11:15:00,68.1,66.0,29.81,SW,225,2.0,9.0,93,0.10,,,0.03,Wunderground v.1.15,2013-06-18 15:15:00,
2013-06-18 11:20:00,68.1,66.0,29.82,South,181,3.0,3.0,93,0.36,,,0.06,Wunderground v.1.15,2013-06-18 15:20:00,
2013-06-18 11:26:00,68.1,66.0,29.81,ENE,71,2.0,9.0,93,0.80,,,0.15,Wunderground v.1.15,2013-06-18 15:26:00,
2013-06-18 11:31:00,67.8,65.7,29.80,NNW,347,1.0,9.0,93,0.28,,,0.18,Wunderground v.1.15,2013-06-18 15:31:00,
2013-06-18 11:36:00,67.7,65.6,29.81,SW,228,1.0,9.0,93,0.09,,,0.18,Wunderground v.1.15,2013-06-18 15:36:00,
2013-06-18 11:41:00,67.8,65.7,29.81,SW,226,1.0,9.0,93,0.05,,,0.18,Wunderground v.1.15,2013-06-18 15:41:00,
2013-06-18 11:46:00,67.9,65.8,29.80,WSW,256,2.0,9.0,93,0.16,,,0.20,Wunderground v.1.15,2013-06-18 15:46:00,
2013-06-18 11:52:00,68.1,66.3,29.80,WSW,237,1.0,9.0,94,0.17,,,0.22,Wunderground v.1.15,2013-06-18 15:52:00,
2013-06-18 11:57:00,68.3,66.5,29.80,WSW,237,1.0,9.0,94,0.11,,,0.23,Wunderground v.1.15,2013-06-18 15:57:00,
2013-06-18 12:02:00,68.3,66.2,29.80,WSW,237,0.0,9.0,93,0.11,,,0.23,Wunderground v.1.15,2013-06-18 16:02:00,
2013-06-18 12:08:00,68.3,65.9,29.80,WSW,237,0.0,9.0,92,0.05,,,0.23,Wunderground v.1.15,2013-06-18 16:08:00,
2013-06-18 12:13:00,68.3,65.9,29.80,ESE,108,1.0,9.0,92,0.04,,,0.24,Wunderground v.1.15,2013-06-18 16:13:00,
2013-06-18 12:18:00,68.1,65.7,29.79,East,98,2.0,9.0,92,0.04,,,0.24,Wunderground v.1.15,2013-06-18 16:18:00,
2013-06-18 12:24:00,68.1,66.0,29.79,ENE,76,2.0,9.0,93,0.06,,,0.25,Wunderground v.1.15,2013-06-18 16:24:00,
2013-06-18 12:30:00,68.1,65.7,29.79,ENE,74,1.0,1.0,92,0.06,,,0.25,Wunderground v.1.15,2013-06-18 16:30:00,
2013-06-18 12:35:00,68.2,66.1,29.79,ENE,74,1.0,9.0,93,0.04,,,0.25,Wunderground v.1.15,2013-06-18 16:35:00,
2013-06-18 12:40:00,68.2,65.8,29.79,ENE,74,1.0,9.0,92,0.04,,,0.26,Wunderground v.1.15,2013-06-18 16:40:00,
2013-06-18 12:45:00,68.3,65.9,29.78,East,81,1.0,9.0,92,0.08,,,0.27,Wunderground v.1.15,2013-06-18 16:45:00,
2013-06-18 12:51:00,68.4,65.7,29.78,NNW,340,1.0,9.0,91,0.09,,,0.28,Wunderground v.1.15,2013-06-18 16:51:00,
2013-06-18 12:56:00,68.6,66.5,29.78,NNW,340,1.0,9.0,93,0.10,,,0.29,Wunderground v.1.15,2013-06-18 16:56:00,
2013-06-18 13:01:00,68.8,66.4,29.78,NNW,341,0.0,9.0,92,0.10,,,0.29,Wunderground v.1.15,2013-06-18 17:01:00,
2013-06-18 13:06:00,68.7,66.0,29.78,North,349,1.0,9.0,91,0.06,,,0.29,Wunderground v.1.15,2013-06-18 17:06:00,
2013-06-18 13:11:00,68.6,65.9,29.79,NNW,328,2.0,9.0,91,0.04,,,0.29,Wunderground v.1.15,2013-06-18 17:11:00,
2013-06-18 13:17:00,68.7,66.3,29.79,NNW,330,2.0,9.0,92,0.00,,,0.29,Wunderground v.1.15,2013-06-18 17:17:00,
2013-06-18 13:22:00,68.8,66.1,29.78,NNW,330,1.0,9.0,91,0.00,,,0.29,Wunderground v.1.15,2013-06-18 17:22:00,
2013-06-18 13:27:00,68.9,66.5,29.78,NNW,330,0.0,9.0,92,0.00,,,0.29,Wunderground v.1.15,2013-06-18 17:27:00,
2013-06-18 13:32:00,69.0,66.3,29.79,NNW,332,1.0,9.0,91,0.00,,,0.30,Wunderground v.1.15,2013-06-18 17:32:00,
2013-06-18 13:37:00,68.9,66.2,29.78,NNW,341,1.0,9.0,91,0.10,,,0.31,Wunderground v.1.15,2013-06-18 17:37:00,
2013-06-18 13:42:00,69.0,66.6,29.78,NNW,337,2.0,9.0,92,0.10,,,0.31,Wunderground v.1.15,2013-06-18 17:42:00,
2013-06-18 13:47:00,69.0,66.6,29.79,NNW,337,1.0,9.0,92,0.06,,,0.31,Wunderground v.1.15,2013-06-18 17:47:00,
2013-06-18 13:52:00,68.9,66.5,29.79,NW,314,1.0,9.0,92,0.04,,,0.31,Wunderground v.1.15,2013-06-18 17:52:00,
2013-06-18 13:57:00,68.9,66.5,29.78,NW,314,1.0,9.0,92,0.04,,,0.32,Wunderground v.1.15,2013-06-18 17:57:00,
2013-06-18 14:02:00,68.9,66.8,29.78,North,354,1.0,9.0,93,0.10,,,0.33,Wunderground v.1.15,2013-06-18 18:02:00,
2013-06-18 14:07:00,69.0,66.6,29.78,NNW,342,2.0,9.0,92,0.09,,,0.34,Wunderground v.1.15,2013-06-18 18:07:00,
2013-06-18 14:12:00,69.0,66.6,29.78,NNW,337,3.0,9.0,92,0.09,,,0.34,Wunderground v.1.15,2013-06-18 18:12:00,
2013-06-18 14:17:00,69.0,66.6,29.78,NNW,341,2.0,9.0,92,0.06,,,0.35,Wunderground v.1.15,2013-06-18 18:17:00,
2013-06-18 14:22:00,68.9,66.2,29.78,NW,323,3.0,9.0,91,0.06,,,0.35,Wunderground v.1.15,2013-06-18 18:22:00,
2013-06-18 14:27:00,68.9,66.2,29.78,NNW,332,4.0,9.0,91,0.05,,,0.35,Wunderground v.1.15,2013-06-18 18:27:00,
2013-06-18 14:33:00,69.0,65.9,29.78,WNW,301,5.0,9.0,90,0.00,,,0.35,Wunderground v.1.15,2013-06-18 18:33:00,
2013-06-18 14:38:00,69.0,66.3,29.78,NNW,337,5.0,9.0,91,0.00,,,0.35,Wunderground v.1.15,2013-06-18 18:38:00,
2013-06-18 14:43:00,69.0,65.9,29.78,North,359,4.0,9.0,90,0.00,,,0.35,Wunderground v.1.15,2013-06-18 18:43:00,
2013-06-18 14:48:00,69.0,65.3,29.78,NE,37,4.0,9.0,88,0.00,,,0.35,Wunderground v.1.15,2013-06-18 18:48:00,
2013-06-18 14:54:00,68.7,64.7,29.78,NNW,344,4.0,12.0,87,0.00,,,0.35,Wunderground v.1.15,2013-06-18 18:54:00,
2013-06-18 14:59:00,68.4,65.0,29.78,NNW,336,5.0,12.0,89,0.00,,,0.35,Wunderground v.1.15,2013-06-18 18:59:00,
2013-06-18 15:04:00,68.4,64.7,29.78,NNW,339,4.0,10.0,88,0.00,,,0.35,Wunderground v.1.15,2013-06-18 19:04:00,
2013-06-18 15:10:00,68.2,64.8,29.78,NNW,332,5.0,9.0,89,0.00,,,0.35,Wunderground v.1.15,2013-06-18 19:10:00,
2013-06-18 15:15:00,68.0,64.6,29.79,NNW,340,7.0,9.0,89,0.00,,,0.35,Wunderground v.1.15,2013-06-18 19:15:00,
2013-06-18 15:20:00,68.1,64.7,29.79,NW,308,6.0,6.0,89,0.00,,,0.35,Wunderground v.1.15,2013-06-18 19:20:00,
2013-06-18 15:25:00,68.2,64.8,29.79,North,4,5.0,10.0,89,0.00,,,0.35,Wunderground v.1.15,2013-06-18 19:25:00,
2013-06-18 15:30:00,68.2,64.5,29.79,NW,314,5.0,9.0,88,0.00,,,0.36,Wunderground v.1.15,2013-06-18 19:30:00,
2013-06-18 15:36:00,67.8,63.8,29.79,NNW,343,7.0,10.0,87,0.00,,,0.36,Wunderground v.1.15,2013-06-18 19:36:00,
2013-06-18 15:42:00,67.5,63.8,29.79,NNW,343,8.0,9.0,88,0.00,,,0.36,Wunderground v.1.15,2013-06-18 19:42:00,
2013-06-18 15:47:00,67.5,63.8,29.79,North,359,6.0,9.0,88,0.00,,,0.36,Wunderground v.1.15,2013-06-18 19:47:00,
2013-06-18 15:52:00,67.6,63.9,29.79,NNW,329,6.0,9.0,88,0.00,,,0.36,Wunderground v.1.15,2013-06-18 19:52:00,
2013-06-18 15:57:00,67.8,63.5,29.79,NNW,346,6.0,9.0,86,0.00,,,0.36,Wunderground v.1.15,2013-06-18 19:57:00,
2013-06-18 16:03:00,67.7,63.0,29.79,North,359,6.0,10.0,85,0.00,,,0.36,Wunderground v.1.15,2013-06-18 20:03:00,
2013-06-18 16:08:00,67.4,62.7,29.80,NW,320,7.0,11.0,85,0.00,,,0.36,Wunderground v.1.15,2013-06-18 20:08:00,
2013-06-18 16:13:00,67.4,63.1,29.80,North,10,6.0,9.0,86,0.00,,,0.36,Wunderground v.1.15,2013-06-18 20:13:00,
2013-06-18 16:18:00,67.3,62.6,29.80,NNE,12,5.0,9.0,85,0.00,,,0.36,Wunderground v.1.15,2013-06-18 20:18:00,
2013-06-18 16:24:00,67.4,63.1,29.79,NW,321,6.0,9.0,86,0.00,,,0.36,Wunderground v.1.15,2013-06-18 20:24:00,
2013-06-18 16:29:00,67.9,63.6,29.79,NNW,332,4.0,9.0,86,0.00,,,0.36,Wunderground v.1.15,2013-06-18 20:29:00,
2013-06-18 16:34:00,68.0,63.0,29.79,NNW,346,3.0,9.0,84,0.00,,,0.36,Wunderground v.1.15,2013-06-18 20:34:00,
2013-06-18 16:39:00,68.0,63.0,29.79,NNW,335,5.0,9.0,84,0.00,,,0.36,Wunderground v.1.15,2013-06-18 20:39:00,
2013-06-18 16:45:00,67.9,62.5,29.79,North,11,4.0,9.0,83,0.00,,,0.36,Wunderground v.1.15,2013-06-18 20:45:00,
2013-06-18 16:51:00,67.7,62.7,29.79,NNW,342,3.0,9.0,84,0.00,,,0.36,Wunderground v.1.15,2013-06-18 20:51:00,
2013-06-18 16:57:00,67.4,62.1,29.79,NNW,333,3.0,9.0,83,0.00,,,0.36,Wunderground v.1.15,2013-06-18 20:57:00,
2013-06-18 17:02:00,67.4,62.4,29.79,NNW,342,2.0,9.0,84,0.00,,,0.36,Wunderground v.1.15,2013-06-18 21:02:00,
2013-06-18 17:08:00,67.4,62.7,29.78,NNW,345,2.0,9.0,85,0.00,,,0.36,Wunderground v.1.15,2013-06-18 21:08:00,
2013-06-18 17:13:00,67.6,62.9,29.78,NNW,347,2.0,9.0,85,0.00,,,0.36,Wunderground v.1.15,2013-06-18 21:13:00,
2013-06-18 17:18:00,67.9,63.2,29.78,ENE,60,1.0,9.0,85,0.00,,,0.36,Wunderground v.1.15,2013-06-18 21:18:00,
2013-06-18 17:23:00,68.0,63.0,29.78,East,89,1.0,9.0,84,0.00,,,0.36,Wunderground v.1.15,2013-06-18 21:23:00,
2013-06-18 17:28:00,68.3,63.6,29.77,ESE,108,2.0,9.0,85,0.00,,,0.36,Wunderground v.1.15,2013-06-18 21:28:00,
2013-06-18 17:34:00,68.5,63.1,29.77,ESE,111,2.0,9.0,83,0.00,,,0.36,Wunderground v.1.15,2013-06-18 21:34:00,
2013-06-18 17:39:00,69.2,63.5,29.77,SSW,208,1.0,9.0,82,0.00,,,0.36,Wunderground v.1.15,2013-06-18 21:39:00,
2013-06-18 17:45:00,70.2,64.4,29.77,WNW,303,1.0,9.0,82,0.00,,,0.36,Wunderground v.1.15,2013-06-18 21:45:00,
2013-06-18 17:50:00,71.3,64.1,29.76,WSW,241,2.0,9.0,78,0.00,,,0.36,Wunderground v.1.15,2013-06-18 21:50:00,
2013-06-18 17:55:00,72.1,63.7,29.77,West,266,2.0,9.0,75,0.00,,,0.36,Wunderground v.1.15,2013-06-18 21:55:00,
2013-06-18 18:01:00,72.7,64.3,29.76,West,278,3.0,9.0,75,0.00,,,0.36,Wunderground v.1.15,2013-06-18 22:01:00,
2013-06-18 18:07:00,72.7,63.5,29.76,West,262,3.0,9.0,73,0.00,,,0.36,Wunderground v.1.15,2013-06-18 22:07:00,
2013-06-18 18:13:00,73.4,64.2,29.76,WNW,283,2.0,9.0,73,0.00,,,0.36,Wunderground v.1.15,2013-06-18 22:13:00,
2013-06-18 18:19:00,73.7,63.3,29.76,North,349,2.0,9.0,70,0.00,,,0.36,Wunderground v.1.15,2013-06-18 22:19:00,
2013-06-18 18:25:00,72.7,63.5,29.77,NW,316,2.0,9.0,73,0.00,,,0.36,Wunderground v.1.15,2013-06-18 22:25:00,
2013-06-18 18:30:00,72.1,63.7,29.77,WNW,287,3.0,9.0,75,0.00,,,0.36,Wunderground v.1.15,2013-06-18 22:30:00,
2013-06-18 18:36:00,72.2,63.8,29.77,West,276,3.0,9.0,75,0.00,,,0.36,Wunderground v.1.15,2013-06-18 22:36:00,
2013-06-18 18:41:00,72.5,64.1,29.78,NW,305,3.0,9.0,75,0.00,,,0.36,Wunderground v.1.15,2013-06-18 22:41:00,
2013-06-18 18:46:00,72.6,63.8,29.78,NNW,332,3.0,9.0,74,0.00,,,0.36,Wunderground v.1.15,2013-06-18 22:46:00,
2013-06-18 18:52:00,72.2,63.4,29.78,NW,304,2.0,9.0,74,0.00,,,0.36,Wunderground v.1.15,2013-06-18 22:52:00,
2013-06-18 18:58:00,71.9,63.5,29.78,NW,306,3.0,9.0,75,0.00,,,0.36,Wunderground v.1.15,2013-06-18 22:58:00,
2013-06-18 19:04:00,71.4,63.4,29.78,NNW,342,4.0,9.0,76,0.00,,,0.36,Wunderground v.1.15,2013-06-18 23:04:00,
2013-06-18 19:09:00,71.5,63.9,29.78,North,354,3.0,9.0,77,0.00,,,0.36,Wunderground v.1.15,2013-06-18 23:09:00,
2013-06-18 19:14:00,71.3,63.0,29.78,NNW,339,2.0,9.0,75,0.00,,,0.36,Wunderground v.1.15,2013-06-18 23:14:00,
2013-06-18 19:19:00,71.4,63.1,29.79,NNW,338,2.0,9.0,75,0.00,,,0.36,Wunderground v.1.15,2013-06-18 23:19:00,
2013-06-18 19:24:00,71.2,62.5,29.78,North,354,2.0,9.0,74,0.00,,,0.36,Wunderground v.1.15,2013-06-18 23:24:00,
2013-06-18 19:30:00,71.4,62.7,29.78,NW,319,2.0,2.0,74,0.00,,,0.36,Wunderground v.1.15,2013-06-18 23:30:00,
2013-06-18 19:35:00,71.4,62.7,29.78,NW,319,1.0,9.0,74,0.00,,,0.36,Wunderground v.1.15,2013-06-18 23:35:00,
2013-06-18 19:40:00,71.3,63.3,29.78,NW,319,1.0,9.0,76,0.00,,,0.36,Wunderground v.1.15,2013-06-18 23:40:00,
2013-06-18 19:46:00,70.7,62.8,29.78,NW,326,1.0,9.0,76,0.00,,,0.36,Wunderground v.1.15,2013-06-18 23:46:00,
2013-06-18 19:51:00,70.3,62.4,29.78,NW,326,1.0,9.0,76,0.00,,,0.36,Wunderground v.1.15,2013-06-18 23:51:00,
2013-06-18 19:56:00,70.1,62.9,29.78,NW,326,1.0,9.0,78,0.00,,,0.36,Wunderground v.1.15,2013-06-18 23:56:00,
2013-06-18 20:01:00,69.9,62.7,29.79,NW,326,0.0,9.0,78,0.00,,,0.36,Wunderground v.1.15,2013-06-19 00:01:00,
2013-06-18 20:06:00,69.7,62.9,29.79,NW,326,0.0,9.0,79,0.00,,,0.36,Wunderground v.1.15,2013-06-19 00:06:00,
2013-06-18 20:12:00,69.4,63.0,29.79,NW,326,0.0,9.0,80,0.00,,,0.36,Wunderground v.1.15,2013-06-19 00:12:00,
2013-06-18 20:18:00,69.1,62.7,29.80,NW,326,0.0,9.0,80,0.00,,,0.36,Wunderground v.1.15,2013-06-19 00:18:00,
2013-06-18 20:23:00,68.9,62.8,29.80,NW,326,0.0,9.0,81,0.00,,,0.36,Wunderground v.1.15,2013-06-19 00:23:00,
2013-06-18 20:28:00,68.6,62.9,29.80,NW,326,0.0,9.0,82,0.00,,,0.36,Wunderground v.1.15,2013-06-19 00:28:00,
2013-06-18 20:33:00,68.4,62.7,29.81,NW,326,0.0,9.0,82,0.00,,,0.36,Wunderground v.1.15,2013-06-19 00:33:00,
2013-06-18 20:38:00,68.1,62.7,29.81,NW,326,0.0,9.0,83,0.00,,,0.36,Wunderground v.1.15,2013-06-19 00:38:00,
2013-06-18 20:43:00,67.9,62.9,29.80,NW,326,0.0,9.0,84,0.00,,,0.36,Wunderground v.1.15,2013-06-19 00:43:00,
2013-06-18 20:49:00,67.4,62.7,29.80,NW,326,0.0,9.0,85,0.00,,,0.36,Wunderground v.1.15,2013-06-19 00:49:00,
2013-06-18 20:54:00,67.1,62.8,29.81,NW,326,1.0,9.0,86,0.00,,,0.36,Wunderground v.1.15,2013-06-19 00:54:00,
2013-06-18 20:59:00,66.9,62.6,29.81,NW,326,0.0,9.0,86,0.00,,,0.36,Wunderground v.1.15,2013-06-19 00:59:00,
2013-06-18 21:04:00,66.8,62.5,29.81,NW,326,0.0,9.0,86,0.00,,,0.36,Wunderground v.1.15,2013-06-19 01:04:00,
2013-06-18 21:10:00,66.5,62.5,29.81,NW,326,0.0,9.0,87,0.00,,,0.36,Wunderground v.1.15,2013-06-19 01:10:00,
2013-06-18 21:15:00,66.3,62.3,29.81,NW,326,0.0,9.0,87,0.00,,,0.36,Wunderground v.1.15,2013-06-19 01:15:00,
2013-06-18 21:21:00,66.0,62.3,29.81,NW,326,0.0,9.0,88,0.00,,,0.36,Wunderground v.1.15,2013-06-19 01:21:00,
2013-06-18 21:26:00,65.8,62.1,29.81,NW,326,0.0,9.0,88,0.00,,,0.36,Wunderground v.1.15,2013-06-19 01:26:00,
2013-06-18 21:31:00,65.5,62.2,29.81,NW,326,0.0,9.0,89,0.00,,,0.36,Wunderground v.1.15,2013-06-19 01:31:00,
2013-06-18 21:36:00,65.0,61.7,29.82,NNW,335,1.0,9.0,89,0.00,,,0.36,Wunderground v.1.15,2013-06-19 01:36:00,
2013-06-18 21:41:00,64.7,61.7,29.82,NNE,23,2.0,9.0,90,0.00,,,0.36,Wunderground v.1.15,2013-06-19 01:41:00,
2013-06-18 21:46:00,64.6,61.6,29.82,NNE,23,1.0,9.0,90,0.00,,,0.36,Wunderground v.1.15,2013-06-19 01:46:00,
2013-06-18 21:51:00,64.4,61.4,29.82,NNE,23,0.0,9.0,90,0.00,,,0.36,Wunderground v.1.15,2013-06-19 01:51:00,
2013-06-18 21:56:00,64.2,61.5,29.82,NNE,23,0.0,9.0,91,0.00,,,0.36,Wunderground v.1.15,2013-06-19 01:56:00,
2013-06-18 22:01:00,64.1,61.4,29.83,NNE,23,0.0,9.0,91,0.00,,,0.36,Wunderground v.1.15,2013-06-19 02:01:00,
2013-06-18 22:07:00,63.9,61.2,29.83,NNE,23,0.0,9.0,91,0.00,,,0.36,Wunderground v.1.15,2013-06-19 02:07:00,
2013-06-18 22:13:00,63.7,61.3,29.84,NNE,23,0.0,9.0,92,0.00,,,0.36,Wunderground v.1.15,2013-06-19 02:13:00,
2013-06-18 22:18:00,63.5,61.1,29.84,NNE,23,0.0,9.0,92,0.00,,,0.36,Wunderground v.1.15,2013-06-19 02:18:00,
2013-06-18 22:23:00,63.3,60.9,29.84,NNE,23,0.0,9.0,92,0.00,,,0.36,Wunderground v.1.15,2013-06-19 02:23:00,
2013-06-18 22:28:00,63.2,60.8,29.84,NNE,23,0.0,9.0,92,0.00,,,0.36,Wunderground v.1.15,2013-06-19 02:28:00,
2013-06-18 22:33:00,63.1,61.0,29.84,NNE,29,0.0,9.0,93,0.00,,,0.36,Wunderground v.1.15,2013-06-19 02:33:00,
2013-06-18 22:39:00,62.9,60.5,29.84,NNE,28,0.0,9.0,92,0.00,,,0.36,Wunderground v.1.15,2013-06-19 02:39:00,
2013-06-18 22:44:00,62.8,60.4,29.85,NNE,28,0.0,9.0,92,0.00,,,0.36,Wunderground v.1.15,2013-06-19 02:44:00,
2013-06-18 22:49:00,62.8,60.7,29.85,WSW,254,1.0,9.0,93,0.00,,,0.36,Wunderground v.1.15,2013-06-19 02:49:00,
2013-06-18 22:54:00,62.7,60.6,29.85,WSW,254,1.0,9.0,93,0.00,,,0.36,Wunderground v.1.15,2013-06-19 02:54:00,
2013-06-18 22:59:00,62.7,60.6,29.85,WSW,254,0.0,9.0,93,0.00,,,0.36,Wunderground v.1.15,2013-06-19 02:59:00,
2013-06-18 23:04:00,62.5,60.4,29.85,WSW,254,0.0,9.0,93,0.00,,,0.36,Wunderground v.1.15,2013-06-19 03:04:00,
2013-06-18 23:09:00,62.4,60.3,29.86,WSW,254,0.0,9.0,93,0.00,,,0.36,Wunderground v.1.15,2013-06-19 03:09:00,
2013-06-18 23:15:00,62.2,60.2,29.86,WSW,254,0.0,9.0,93,0.00,,,0.36,Wunderground v.1.15,2013-06-19 03:15:00,
2013-06-18 23:20:00,62.2,60.2,29.86,WSW,254,0.0,9.0,93,0.00,,,0.36,Wunderground v.1.15,2013-06-19 03:20:00,
2013-06-18 23:26:00,62.1,60.1,29.85,WSW,255,0.0,9.0,93,0.00,,,0.36,Wunderground v.1.15,2013-06-19 03:26:00,
2013-06-18 23:31:00,62.0,60.0,29.86,WSW,255,0.0,9.0,93,0.00,,,0.36,Wunderground v.1.15,2013-06-19 03:31:00,
2013-06-18 23:36:00,61.9,60.2,29.86,WSW,254,0.0,9.0,94,0.00,,,0.36,Wunderground v.1.15,2013-06-19 03:36:00,
2013-06-18 23:42:00,61.8,60.1,29.86,WSW,254,0.0,9.0,94,0.00,,,0.36,Wunderground v.1.15,2013-06-19 03:42:00,
2013-06-18 23:47:00,61.8,59.8,29.86,WSW,254,1.0,9.0,93,0.00,,,0.36,Wunderground v.1.15,2013-06-19 03:47:00,
2013-06-18 23:53:00,61.7,59.7,29.86,WSW,253,1.0,9.0,93,0.00,,,0.36,Wunderground v.1.15,2013-06-19 03:53:00,
2013-06-18 23:59:00,61.6,59.6,29.86,WSW,253,1.0,9.0,93,0.00,,,0.36,Wunderground v.1.15,2013-06-19 03:59:00,